Flag for Russia Weather past 2 weeks in Murmansk, Russia

Now
46 °F

Partly sunny.


Feels Like: 40 °F
Forecast: 42 / 52 °F
Wind: 15 mph from North

Location: Murmansk Airport

Current Time: Jul 6, 2015 at 11:18:03 AM

Latest Report: Jul 6, 2015 at 10:30 AM


Visibility: N/A

Pressure: 30.01 "Hg

Humidity: 66%

Dew point: 36 °F

Location of MurmanskLocation

Historic Weather in Murmansk — Graph

°F

Murmansk temperature yesterday

Maximum temperature yesterday: 48 °F (at 12:30 PM)
Minimum temperature yesterday: 41 °F (at 1:00 AM)
Average temperature yesterday: 43 °F

Past Weeks' High & Low Weather Summary

 TemperatureHumidityPressure
High72 °F (Jun 22, 3:00 PM)94% (Jun 25, 5:30 AM)30.27 "Hg (Jun 25, 5:30 AM)
Low34 °F (Jul 2, 2:00 AM)20% (Jun 23, 3:30 PM)29.53 "Hg (Jun 26, 3:30 AM)
Average52 °F68%29.93 "Hg
* Reported Jun 21 10:00 AM — Jul 6 10:00 AM, Murmansk, Weather by CustomWeather, © 2015

Note: Actual official high and low records may vary slightly from our data, if they occured in-between our weather recording intervals... More about our weather records

Advertising

Murmansk weather history for previous 24 hours

 ConditionsComfort  
Time TempWeatherWind HumidityBarometerVisibility
10:00 AM
Mon, Jul 6
45 °FPartly sunny.13 mph71%30.01 "HgN/A
9:30 AM45 °FSprinkles. Partly sunny.13 mph71%30.01 "HgN/A
9:00 AM45 °FPartly sunny.13 mph71%30.01 "HgN/A
8:30 AM45 °FPartly sunny.10 mph71%30.04 "HgN/A
8:00 AM43 °FPartly sunny.10 mph71%30.04 "HgN/A
7:30 AM43 °FPartly sunny.10 mph71%30.04 "HgN/A
7:00 AM43 °FPartly sunny.8 mph76%30.04 "HgN/A
6:30 AM43 °FPartly sunny.8 mph71%30.04 "HgN/A
6:00 AM41 °FPartly sunny.10 mph76%30.04 "HgN/A
5:30 AM41 °FPartly sunny.8 mph76%30.04 "HgN/A
5:00 AM41 °FPartly sunny.6 mph76%30.07 "HgN/A
4:30 AM39 °FPartly sunny.6 mph81%30.07 "HgN/A
4:00 AM39 °FSprinkles. Partly sunny.6 mph87%30.07 "HgN/A
3:30 AM39 °FSprinkles. Partly sunny.6 mph87%30.07 "Hg6 mi
3:00 AM39 °FSprinkles. Partly sunny.3 mph87%30.07 "Hg6 mi
2:30 AM39 °FSprinkles. Partly sunny.8 mph87%30.07 "Hg4 mi
2:00 AM39 °FSprinkles. Partly sunny.6 mph87%30.07 "HgN/A
1:30 AM39 °FSprinkles. Partly sunny.6 mph87%30.07 "Hg4 mi
1:00 AM39 °FSprinkles. Partly sunny.3 mph87%30.07 "HgN/A
12:30 AM39 °FPartly sunny.3 mph87%30.07 "HgN/A
12:00 AM39 °FScattered clouds.3 mph81%30.07 "HgN/A
11:30 PM
Sun, Jul 5
41 °FScattered clouds.3 mph76%30.07 "HgN/A
11:00 PM41 °FScattered clouds.6 mph81%30.07 "HgN/A
10:30 PM43 °FScattered clouds.6 mph76%30.07 "HgN/A
10:00 PM43 °FPassing clouds.6 mph76%30.07 "HgN/A
9:30 PM43 °FPartly sunny.6 mph71%30.07 "HgN/A
9:00 PM45 °FPartly sunny.10 mph71%30.07 "HgN/A
8:30 PM45 °FPartly sunny.6 mph71%30.07 "HgN/A
8:00 PM45 °FPartly sunny.6 mph76%30.07 "HgN/A
7:30 PM45 °FPartly sunny.3 mph71%30.07 "HgN/A
7:00 PM43 °FPartly sunny.8 mph76%30.07 "HgN/A
6:30 PM45 °FPartly sunny.6 mph76%30.07 "HgN/A
6:00 PM45 °FSprinkles. Partly sunny.6 mph76%30.07 "HgN/A
5:30 PM45 °FSprinkles. Partly sunny.6 mph81%30.07 "HgN/A
5:00 PM45 °FSprinkles. Partly sunny.10 mph76%30.07 "Hg5 mi
4:30 PM45 °FPartly sunny.8 mph76%30.07 "HgN/A
4:00 PM45 °FPartly sunny.6 mph76%30.07 "HgN/A
3:30 PM43 °FSprinkles. Partly sunny.8 mph81%30.07 "Hg6 mi
3:00 PM43 °FSprinkles. Partly sunny.6 mph81%30.07 "Hg6 mi
2:30 PM45 °FSprinkles. Partly sunny.10 mph76%30.07 "Hg6 mi
2:00 PM46 °FSprinkles. Partly sunny.15 mph71%30.04 "Hg6 mi
1:00 PM48 °FPartly sunny.13 mph54%30.04 "HgN/A
12:30 PM48 °FPartly sunny.10 mph58%30.04 "HgN/A
12:00 PM46 °FPartly sunny.10 mph62%30.04 "HgN/A
11:30 AM46 °FPartly sunny.8 mph71%30.04 "HgN/A
11:00 AM45 °FSprinkles. Partly sunny.8 mph76%30.04 "HgN/A
Weather by CustomWeather, © 2015

See weather overviewHow to use our weather pages